Back to catalog

STARLINK-33644

AliveCommunicationsVLEO
NORAD 63414·PAYLOAD·🇺🇸 United States

Launched Mar 31, 2025 from Cape Canaveral Space Force Station

Loading…

Next Passes (next 24 hours)

TLE

FreshSource: CelesTrak SupGP

Epoch: Sep 14, 2026, 23:06 UTC

1 63414C 25065R   26257.96298611  .00004421  00000+0  16017-3 0  2575
2 63414  42.9994 118.6100 0001332 272.2982 355.1191 15.27569466    12

Track STARLINK-33644 in real time with AllMySat

Download on the App Store